STARLINK-3691, 51960

Orbit data source: Space-Track

STARLINK-3691, 51960 is a payload satellite owned by SpaceX/Seattle (US) in LEO that was launched on Wed, 09 Mar 2022 UTC via an FALCON 9 launch vehicle from the Air Force Eastern Test Range (AFETR). Payload-class satellites include a variety of spacecraft equipped with specific instruments for various scientific and technological missions. These include communications satellites like Starlink; space stations such as the ISS; scientific satellites like the Hubble; Earth observation satellites from companies like Planet Labs, Umbra, and HawkEye 360; GPS; miniature CubeSats for education and research; and military/defense satellites.

Loading next visibility...
Identifier
51960, 2022-025E
Orbit
LEO
Country
Flag of USUS
Related business
Manufacturer
SpaceX/Seattle
Mission
Operational Commercial Communications
Bus & Motor
STARLINK, Unknown motor
Mass
297 kg wet, ~275 kg dry
Launch date (UTC)
2022-03-09 (4 years ago)
Launch vehicle
FALCON 9
Launch site
Air Force Eastern Test Range (AFETR)
Object type
Payload
Rocket body
Debris
Shape & HBR
Box + 1 Pan, 10.1 m
Radar Cross Section
13.562 m², Large (>1 m²)

Expand to show TLE details & history
Last TLE update: 3 days ago

TLE from 3 days ago
0 STARLINK-3691
1 51960U 22025E   26170.57214421  .00000236  00000-0  19374-4 0  9993
2 51960  53.1602 282.7073 0001170  93.3030 266.8105 15.31699430236444
Epoch: 2026-06-19T13:43Z
TLE epoch observation values (Epoch: 2026-06-19T13:43:53.259Z)
Latitude
-0.00006°
Longitude
168.93615°
Altitude
471.687 km
Speed
7.631 km/s
True Right ascension
18h 50m 49s
True Declination
0° 00' 00"
Sunlit
Object was in full shadow at epoch
Visualization orbit readout
Latitude
Unknown
Longitude
Unknown
Altitude
Unknown
Speed
Unknown
Apparent Right ascension
Unknown
Apparent Declination
Unknown
Sunlit
N/A
Visualization observer readout
Local Sidereal Time
00:56:28
Azimuth
Unknown
Elevation
Unknown
Doppler factor
Unknown
Orbital elements
Apogee altitude
471.8 km
Perigee altitude
470.197 km
Semi-major axis
6,849.135 km
Eccentricity
0.00012
Inclination
53.1602°
RAAN
282.7073°
Arg. of periapsis
93.303°
True anomaly
266.79711°
Mean anomaly
266.8105°
Eccentric anomaly
266.80381°
Mean motion
3.82904 °/min
Orbital period
94.02 mins
BSTAR
0.000019374
Loading maneuver chart data...
Computing Atmospheric mass density...
Loading historical data...
Loading historical data...
Loading historical data...
Loading historical data...
Loading historical data...
Loading historical data...
Loading historical data...

Documentation

Showing up to 5 results
|